Location: Umburanas
(4.5000°S, 37.9667°W)
Time: 03:41:40
(UTC+00:00)

Cosmos 1624 Rocket - Pass Details

Date: 19 November 2019
Orbit: 756 x 785 km, 74.0° (Epoch: 11 December)

Event Time Altitude Azimuth Distance (km) Brightness Sun altitude
Rises 22:04:07 0° 342° (NNW) 3,247 7.2 -23.3°
Reaches altitude 10° 22:06:31 10° 340° (NNW) 2,320 6.4 -23.9°
Maximum altitude 22:11:45 67° 258° (WSW) 839 4.3 -25.1°
Drops below altitude 10° 22:16:58 10° 175° (S) 2,315 6.7 -26.2°
Sets 22:19:21 0° 172° (S) 3,240 7.5 -26.8°
